York, PA

7:28 AM EST on January 19, 2018 (GMT -0500)
York

Weather History for KTHV - April, 2014

Change the Weather History Date:

Tuesday, April 29, 2014

  Actual Average Record
Temperature  
Mean Temperature 48 °F -  
Max Temperature 51 °F 0 °F 84 °F (2017)
Min Temperature 45 °F - 28 °F (2001)
Degree Days  
Heating Degree Days 17    
Moisture  
Dew Point 44 °F    
Average Humidity 90    
Maximum Humidity 97    
Minimum Humidity 77    
Precipitation  
Precipitation 0.87 in - - ()
Sea Level Pressure  
Sea Level Pressure 30.17 in    
Wind  
Wind Speed 9 mph (ESE)    
Max Wind Speed 21 mph    
Max Gust Speed 29 mph    
Visibility 7 miles    
Events Rain    
Averages and records for this station are not official NWS values.
T = Trace of Precipitation, MM = Missing Value Source: NWS Daily Summary

Daily Weather History Graph

Daily Weather History Graph

Search for Another Location

Airport or City:

Trip Planner

Search our weather history database for the weather conditions in past years. The results will help you decide how hot, cold, wet, or windy it might be!

Date:

Astronomy

Apr. 29, 2014 Rise Set
Actual Time 6:10 AM EDT 8:00 PM EDT
Civil Twilight 5:41 AM EDT 8:29 PM EDT
Nautical Twilight 5:05 AM EDT 9:04 PM EDT
Astronomical Twilight 4:27 AM EDT 9:42 PM EDT
Moon 6:26 AM EDT (4/29) 8:38 PM EDT (4/29)
Length of Visible Light 14h 48m
Length of Day
13h 49m
New Moon, 0% of the Moon is Illuminated
Apr 29
New Moon
May 6
First Quarter
May 14
Full
May 21
Last Quarter
May 28
New

Hourly Weather History & Observations

Time (EDT) Temp. Windchill Dew Point Humidity Pressure Visibility Wind Dir Wind Speed Gust Speed Precip Events Conditions
12:29 AM 48.9 °F - 48.0 °F 97% 30.07 in 5.0 mi SE 4.6 mph - N/A   Overcast
12:53 AM 50.0 °F - 48.0 °F 93% 30.09 in 9.0 mi SSE 3.5 mph - N/A   Overcast
12:57 AM 50.0 °F - 48.0 °F 93% 30.08 in 9.0 mi SSE 3.5 mph - N/A   Overcast
1:30 AM 50.0 °F - 48.0 °F 93% 30.08 in 9.0 mi SE 4.6 mph - N/A   Overcast
1:45 AM 50.0 °F - 48.0 °F 93% 30.08 in 10.0 mi SE 3.5 mph - N/A   Overcast
1:53 AM 50.0 °F - 48.0 °F 93% 30.09 in 10.0 mi ESE 4.6 mph - N/A   Overcast
2:07 AM 50.0 °F - 48.0 °F 93% 30.07 in 10.0 mi ESE 6.9 mph - N/A   Overcast
2:19 AM 50.0 °F - 48.0 °F 93% 30.06 in 10.0 mi ESE 8.1 mph - N/A   Overcast
2:37 AM 50.0 °F - 48.0 °F 93% 30.08 in 10.0 mi ESE 4.6 mph - N/A   Overcast
2:49 AM 50.0 °F - 48.2 °F 94% 30.07 in 10.0 mi ESE 8.1 mph - N/A   Overcast
2:53 AM 50.0 °F - 48.0 °F 93% 30.07 in 10.0 mi ESE 8.1 mph - N/A   Overcast
3:07 AM 50.0 °F - 48.0 °F 93% 30.07 in 10.0 mi SSE 8.1 mph - N/A   Overcast
3:16 AM 51.1 °F - 46.9 °F 86% 30.08 in 10.0 mi SSE 6.9 mph - N/A   Overcast
3:23 AM 50.0 °F - 46.9 °F 89% 30.08 in 10.0 mi SSE 5.8 mph - N/A   Overcast
3:53 AM 50.0 °F - 46.9 °F 89% 30.10 in 10.0 mi SSE 8.1 mph - N/A   Overcast
4:41 AM 50.0 °F - 45.0 °F 83% 30.11 in 10.0 mi ESE 9.2 mph - N/A   Overcast
4:53 AM 50.0 °F - 45.0 °F 83% 30.11 in 10.0 mi SE 11.5 mph - N/A   Overcast
5:53 AM 48.0 °F - 42.1 °F 80% 30.13 in 10.0 mi ESE 11.5 mph - N/A   Overcast
6:22 AM 48.0 °F - 43.0 °F 83% 30.12 in 10.0 mi ESE 11.5 mph - 0.00 in   Overcast
6:53 AM 48.0 °F - 42.1 °F 80% 30.16 in 10.0 mi ESE 11.5 mph 21.9 mph 0.00 in   Overcast
7:35 AM 48.0 °F - 41.0 °F 77% 30.16 in 10.0 mi ESE 15.0 mph - N/A   Overcast
7:53 AM 46.9 °F - 41.0 °F 80% 30.18 in 10.0 mi ESE 8.1 mph - N/A   Overcast
8:53 AM 48.0 °F - 42.1 °F 80% 30.20 in 10.0 mi ESE 11.5 mph - N/A   Overcast
9:30 AM 46.9 °F - 43.0 °F 86% 30.21 in 2.0 mi East 8.1 mph - 0.07 in Rain Heavy Rain
9:40 AM 46.9 °F - 43.0 °F 86% 30.21 in 3.0 mi East 9.2 mph - 0.10 in Rain Rain
9:53 AM 46.9 °F - 44.1 °F 90% 30.22 in 6.0 mi East 8.1 mph - 0.11 in Rain Light Rain
10:53 AM 48.0 °F - 44.1 °F 86% 30.22 in 5.0 mi East 8.1 mph - 0.05 in Rain Light Rain
11:53 AM 48.0 °F - 44.1 °F 86% 30.20 in 8.0 mi ESE 13.8 mph 25.3 mph 0.05 in Rain Light Rain
12:11 PM 48.0 °F - 44.1 °F 86% 30.17 in 10.0 mi ESE 17.3 mph 26.5 mph 0.00 in Rain Light Rain
12:28 PM 48.0 °F - 44.1 °F 86% 30.18 in 10.0 mi East 20.7 mph 26.5 mph 0.00 in Rain Light Rain
12:53 PM 46.9 °F - 43.0 °F 86% 30.21 in 10.0 mi ESE 12.7 mph 25.3 mph 0.00 in   Overcast
1:27 PM 46.9 °F - 42.1 °F 83% 30.19 in 10.0 mi East 19.6 mph 28.8 mph 0.00 in Rain Light Rain
1:53 PM 46.9 °F - 43.0 °F 86% 30.19 in 4.0 mi East 13.8 mph 23.0 mph 0.02 in Rain Light Rain
2:04 PM 46.0 °F 39.9 °F 43.0 °F 89% 30.19 in 5.0 mi East 13.8 mph - 0.00 in Rain Light Rain
2:21 PM 46.0 °F 39.6 °F 43.0 °F 89% 30.19 in 2.0 mi East 15.0 mph 21.9 mph 0.05 in Rain Heavy Rain
2:27 PM 46.0 °F 40.2 °F 43.0 °F 89% 30.19 in 3.0 mi ESE 12.7 mph 21.9 mph 0.05 in Rain Light Rain
2:39 PM 46.0 °F 39.9 °F 43.0 °F 89% 30.19 in 2.5 mi ESE 13.8 mph 19.6 mph 0.09 in Rain Heavy Rain
2:43 PM 46.0 °F 40.2 °F 43.0 °F 89% 30.19 in 1.8 mi ESE 12.7 mph 19.6 mph 0.12 in Rain Heavy Rain
2:51 PM 46.4 °F 41.9 °F 44.6 °F 93% 30.19 in 2.5 mi ESE 9.2 mph - 0.14 in Rain Rain
2:53 PM 46.0 °F 41.0 °F 44.1 °F 93% 30.21 in 3.0 mi East 10.4 mph - 0.14 in Rain Light Rain
2:57 PM 46.0 °F 41.4 °F 44.1 °F 93% 30.19 in 4.0 mi East 9.2 mph - 0.00 in Rain Light Rain
3:11 PM 46.0 °F 41.0 °F 44.1 °F 93% 30.19 in 2.0 mi East 10.4 mph 17.3 mph 0.04 in Rain Rain
3:20 PM 46.0 °F 40.6 °F 44.1 °F 93% 30.18 in 1.5 mi East 11.5 mph - 0.08 in Rain Rain
3:29 PM 46.0 °F 41.0 °F 44.1 °F 93% 30.20 in 2.5 mi ESE 10.4 mph - 0.11 in Rain Rain
3:37 PM 46.0 °F 41.0 °F 44.1 °F 93% 30.20 in 2.5 mi ESE 10.4 mph - 0.13 in Rain Heavy Rain
3:50 PM 46.4 °F 40.7 °F 44.6 °F 93% 30.20 in 3.0 mi ESE 12.7 mph - 0.16 in Rain Rain
3:53 PM 46.9 °F - 44.1 °F 90% 30.21 in 3.0 mi East 12.7 mph - 0.16 in Rain Rain
4:02 PM 46.9 °F - 44.1 °F 90% 30.19 in 5.0 mi East 13.8 mph - 0.01 in Rain Light Rain
4:18 PM 46.9 °F - 44.1 °F 90% 30.19 in 9.0 mi East 12.7 mph - 0.01 in Rain Light Rain
4:26 PM 46.9 °F - 44.1 °F 90% 30.19 in 10.0 mi ESE 15.0 mph 19.6 mph 0.01 in Rain Light Rain
4:53 PM 46.9 °F - 44.1 °F 90% 30.21 in 4.0 mi East 10.4 mph - 0.04 in Rain Heavy Rain
6:06 PM 46.0 °F 41.0 °F 44.1 °F 93% 30.21 in 2.5 mi East 10.4 mph - 0.05 in Rain Rain
6:13 PM 46.0 °F 40.6 °F 44.1 °F 93% 30.21 in 7.0 mi East 11.5 mph - 0.05 in Rain Light Rain
6:22 PM 46.9 °F - 44.1 °F 90% 30.21 in 10.0 mi ESE 10.4 mph - 0.05 in Rain Light Rain
6:53 PM 46.9 °F - 44.1 °F 90% 30.22 in 10.0 mi East 8.1 mph - 0.06 in   Overcast
7:21 PM 46.9 °F - 44.1 °F 90% 30.22 in 10.0 mi East 12.7 mph - 0.00 in Rain Light Rain
7:53 PM 46.0 °F 39.6 °F 43.0 °F 89% 30.24 in 5.0 mi East 15.0 mph - 0.00 in Rain Light Rain
8:42 PM 46.0 °F 41.9 °F 44.1 °F 93% 30.23 in 3.0 mi East 8.1 mph 18.4 mph 0.00 in Rain Light Rain
8:53 PM 46.0 °F 41.0 °F 44.1 °F 93% 30.25 in 3.0 mi ENE 10.4 mph - 0.00 in Rain Light Rain
9:02 PM 45.0 °F 40.6 °F 44.1 °F 97% 30.23 in 2.5 mi East 8.1 mph - 0.01 in Rain Light Rain
9:16 PM 45.0 °F 39.3 °F 43.0 °F 93% 30.24 in 4.0 mi East 11.5 mph - 0.01 in Rain Light Rain
9:30 PM 45.0 °F 38.5 °F 43.0 °F 93% 30.23 in 4.0 mi East 13.8 mph 20.7 mph 0.02 in Rain Light Rain
9:53 PM 45.0 °F 40.1 °F 43.0 °F 93% 30.26 in 6.0 mi East 9.2 mph 19.6 mph 0.07 in Rain Light Rain
10:02 PM 45.0 °F 40.6 °F 44.1 °F 97% 30.24 in 9.0 mi ENE 8.1 mph - 0.00 in Rain Light Rain
10:17 PM 45.0 °F 39.3 °F 43.0 °F 93% 30.24 in 9.0 mi East 11.5 mph - 0.00 in   Overcast
10:27 PM 45.0 °F 39.7 °F 43.0 °F 93% 30.24 in 4.0 mi East 10.4 mph - 0.01 in Rain Light Rain
10:53 PM 45.0 °F 40.1 °F 43.0 °F 93% 30.25 in 10.0 mi East 9.2 mph - 0.03 in   Overcast
11:43 PM 45.0 °F 40.6 °F 44.1 °F 97% 30.24 in 5.0 mi ESE 8.1 mph - 0.13 in Rain Rain
11:53 PM 45.0 °F 40.1 °F 43.0 °F 93% 30.25 in 8.0 mi East 9.2 mph - 0.14 in Rain Light Rain